sat.trackr.live / text

‹ back to catalog

STARLINK-2636

NORAD 48357 · 2021-038E

PAYLOAD ACTIVE UNKNOWN

§ Identity

Operator
Country
US
Launch date
2021-05-04
Launch site
AFETR
Launch vehicle
Mass (kg)
RCS (m²)

Purposes: comms

External: N2YO · Heavens-Above · Gunter

§ Orbital elements

Epoch: 2026-09-19T01:36:57.686976Z

Period
94.01 min
Inclination
53.1602°
Eccentricity
0.0001079
Mean motion
15.31700045 rev/d
Perigee alt
470.0 km
Apogee alt
471.5 km
Semi-major
6,848.9 km
B*
4.7204e-5
RAAN
178.2239°
Arg perigee
94.7633°
Mean anomaly
265.3492°
Rev number
29,671

§ Raw data

STARLINK-26361 48357U 21038E   26262.06733434  .00001100  00000+0  47204-4 0  99912 48357  53.1602 178.2239 0001079  94.7633 265.3492 15.31700045296719

JSON: /api/v1/satellites/48357 · /tle

For live sub-satellite position, see the globe view (requires WebGL).

§ Visibility from observer

Set your observer location to see the next 7 days of passes ≥ 10°. The values pass through the URL so the page stays shareable.

No JS? Fill the form by hand. The geolocation button needs JavaScript.